CW1172 Weather Reports


Display with metric or nautical units.
time (UTC)temp
F
wind
direction
speed
MPH
gust
MPH
rain 1hr
in
rain 24hr
in
rain mn
in
humidity
%
barometer
mb
20260506160037 58 236 0.0 0.0 0.00 0.00 0.00 42 1010.6
20260506154544 58 284 0.0 0.0 0.00 0.00 0.00 40 1010.6
20260506153037 58 305 0.0 0.0 0.00 0.00 0.00 42 1010.8
20260506151541 57 271 0.0 0.0 0.00 0.00 0.00 41 1010.8
20260506150037 57 299 0.0 0.0 0.00 0.00 0.00 41 1010.7
20260506144534 57 360 0.0 0.0 0.00 0.00 0.00 42 1010.8
20260506143034 57 272 0.0 0.0 0.00 0.00 0.00 43 1010.8
20260506141533 57 246 0.0 0.0 0.00 0.00 0.00 42 1010.9
20260506140035 56 326 0.0 0.0 0.00 0.00 0.00 39 1010.9
20260506134535 56 340 0.0 0.0 0.00 0.00 0.00 38 1010.8
20260506133036 57 317 0.0 0.0 0.00 0.00 0.00 38 1010.8
20260506131537 57 326 0.0 0.0 0.00 0.00 0.00 36 1010.8
20260506130037 58 287 0.0 0.0 0.00 0.00 0.00 33 1010.9
20260506124531 59 318 0.0 0.0 0.00 0.00 0.00 33 1010.9
20260506123031 59 335 0.0 0.0 0.00 0.00 0.00 33 1011.0
20260506121529 60 246 0.0 0.0 0.00 0.00 0.00 31 1011.0
20260506120027 59 267 0.0 0.0 0.00 0.00 0.00 31 1011.0
20260506114528 59 259 0.0 0.0 0.00 0.00 0.00 31 1011.0
20260506113025 59 298 0.0 0.0 0.00 0.00 0.00 30 1011.0
20260506111529 58 280 0.0 0.0 0.00 0.00 0.00 30 1011.0
20260506110024 58 279 0.0 0.0 0.00 0.00 0.00 32 1011.0
20260506104524 58 286 0.0 0.0 0.00 0.00 0.00 30 1011.2
20260506103022 58 234 0.0 0.0 0.00 0.00 0.00 31 1011.2
20260506101522 58 313 0.0 0.0 0.00 0.00 0.00 32 1011.2
20260506100020 57 219 0.0 0.0 0.00 0.00 0.00 34 1011.5
20260506094520 57 303 0.0 0.0 0.00 0.00 0.00 35 1011.6
20260506093020 57 225 0.0 0.0 0.00 0.00 0.00 36 1011.6
20260506091519 57 268 0.0 0.0 0.00 0.00 0.00 34 1011.7
20260506090018 57 360 0.0 0.0 0.00 0.00 0.00 34 1011.8
20260506084523 56 155 0.0 0.0 0.00 0.00 0.00 32 1011.9
20260506083019 55 173 0.0 0.0 0.00 0.00 0.00 33 1011.9
20260506081517 55 176 0.0 0.0 0.00 0.00 0.00 33 1011.8
20260506073009 53 360 0.0 0.0 0.00 0.00 0.00 45 1011.7
20260506071506 52 360 0.0 0.0 0.00 0.00 0.00 51 1011.8
20260506061553 45 126 0.0 0.0 0.00 0.00 0.00 62 1011.9
20260506044544 37 143 0.0 0.0 0.00 0.00 0.00 74 1012.0
20260506043037 36 129 0.0 0.0 0.00 0.00 0.00 76 1012.0
20260506041550 35 145 0.0 0.0 0.00 0.00 0.00 79 1011.9
20260506040033 34 132 0.0 0.0 0.00 0.00 0.00 81 1011.8
20260506034543 33 128 0.0 0.0 0.00 0.00 0.00 82 1011.8
20260506033028 34 144 0.0 0.0 0.00 0.00 0.00 82 1011.8
20260506031528 34 139 0.0 0.0 0.00 0.00 0.00 83 1011.7
20260506030027 32 142 0.0 0.0 0.00 0.00 0.00 86 1011.6
20260506024529 31 131 0.0 0.0 0.00 0.00 0.00 87 1011.6
20260506023025 30 131 0.0 0.0 0.00 0.00 0.00 86 1011.6
20260506021524 30 145 0.0 0.0 0.00 0.00 0.00 86 1011.5
20260506020025 30 130 0.0 0.0 0.00 0.00 0.00 86 1011.4
20260506014527 30 131 0.0 0.0 0.00 0.00 0.00 85 1011.3
20260506013037 31 128 0.0 0.0 0.00 0.00 0.00 85 1011.4
20260506011527 31 116 0.0 0.0 0.00 0.00 0.00 85 1011.3
20260506010025 31 155 0.0 0.0 0.00 0.00 0.00 84 1011.3
20260506004521 32 134 0.0 0.0 0.00 0.00 0.00 85 1011.3
20260506003020 31 132 0.0 0.0 0.00 0.00 0.00 84 1011.1
20260506001519 32 128 0.0 0.0 0.00 0.00 0.00 83 1011.2
20260506000018 32 119 0.0 0.0 0.00 0.00 0.00 83 1011.3
20260505234519 32 121 0.0 0.0 0.00 0.00 0.00 83 1011.2
20260505233025 32 121 0.0 0.0 0.00 0.00 0.00 82 1011.2
20260505231515 32 120 0.0 0.0 0.00 0.00 0.00 82 1011.3
20260505230014 32 121 0.0 0.0 0.00 0.00 0.00 81 1011.3
20260505224514 32 132 0.0 0.0 0.00 0.00 0.00 80 1011.5
20260505223011 33 166 0.0 0.0 0.00 0.00 0.00 79 1011.7
20260505221510 33 166 0.0 0.0 0.00 0.00 0.00 78 1011.7
20260505220022 33 167 0.0 0.0 0.00 0.00 0.00 78 1011.6
20260505214507 34 167 0.0 0.0 0.00 0.00 0.00 77 1011.8
20260505213005 34 166 0.0 0.0 0.00 0.00 0.00 76 1011.7
20260505211503 35 167 0.0 0.0 0.00 0.00 0.00 74 1011.8
20260505210001 36 167 0.0 0.0 0.00 0.00 0.00 73 1011.5
20260505204503 36 165 0.0 0.0 0.00 0.00 0.00 71 1011.5
20260505203108 38 219 0.0 0.0 0.00 0.00 0.00 70 1011.4
20260505201556 39 219 0.0 0.0 0.00 0.00 0.00 69 1011.4
20260505200108 40 221 0.0 0.0 0.00 0.00 0.00 68 1011.5
20260505194556 41 219 0.0 0.0 0.00 0.00 0.00 65 1011.4
20260505193103 43 219 0.0 0.0 0.00 0.00 0.00 63 1011.3
20260505191604 44 219 0.0 0.0 0.00 0.00 0.00 59 1011.3
20260505190052 45 218 0.0 0.0 0.00 0.00 0.00 59 1011.2
20260505184551 46 360 0.0 0.0 0.00 0.00 0.00 56 1010.9
20260505183050 47 316 0.0 0.0 0.00 0.00 0.00 54 1010.8
20260505181555 47 288 0.0 0.0 0.00 0.00 0.00 51 1010.8
20260505180048 48 360 0.0 0.0 0.00 0.00 0.00 47 1010.8
20260505174548 49 301 0.0 0.0 0.00 0.00 0.00 43 1010.7
20260505173046 51 292 0.0 0.0 0.00 0.00 0.00 37 1010.6
20260505171547 52 171 0.0 0.0 0.00 0.00 0.00 35 1010.6
20260505170046 53 306 0.0 0.0 0.00 0.00 0.00 33 1010.5
20260505164549 54 360 0.0 0.0 0.00 0.00 0.00 32 1010.5
20260505163045 52 309 0.0 0.0 0.00 0.00 0.00 35 1010.5
20260505161547 53 244 0.0 0.0 0.00 0.00 0.00 34 1010.5